SITKA/JAPONSKI_ARPT current weather conditions

sailwx.info

Wind from 100 at 2 knots

Air temperature 1.1° C
Visibility: greater than 8.7 NM
Dewpoint -1.1° C

Last reported at 2017-Nov-19 03:53 UTC.
Time now 2017-Nov-19 05:00 UTC

Location: N 57°04' W 135°21'.
View on Google Maps.

See reports from other nearby stations

  
Tides and Currents Weather Stations Pressure Air Temp Water Temp Dewpoint Dewpoint Depression Visibility Wind Speed Wind Dir Waves Ship Positions
date/time (UTC)wind fromknots sea level pressurealtimeterstation pressurevisibilityair tempwater tempwave heightnotes
2017-Nov-19 03:53 100 2 8.7 1.1
2017-Nov-19 02:53 100 2 8.7 1.7
2017-Nov-19 01:53 070 2 8.7 1.1
2017-Nov-19 00:53 070 4 8.7 2.2
2017-Nov-18 23:53 320 4 8.7 3.3
2017-Nov-18 22:53 290 4 8.7 3.3
2017-Nov-18 21:53 330 6 8.7 3.9
2017-Nov-18 20:53 8.7 3.9
2017-Nov-18 19:53 8.7 2.8
2017-Nov-18 18:53 8.7 3.3
2017-Nov-18 17:53 300 6 8.7 3.3
2017-Nov-18 16:53 350 5 8.7 2.2
2017-Nov-18 16:43 340 6 8.7 2.2
2017-Nov-18 16:33 320 6 8.7 2.8
2017-Nov-18 15:53 8.7 2.2 Light rain.
2017-Nov-18 14:53 080 4 8.7 2.2
2017-Nov-18 13:53 100 12 8.7 2.8
2017-Nov-18 12:53 100 12 8.7 2.8 Light rain.
2017-Nov-18 12:48 100 11 8.7 3.0 Light rain.
2017-Nov-18 12:04 110 8 8.7 2.8 Light rain.
2017-Nov-18 11:53 8.7 2.8 Light rain.
2017-Nov-18 10:53 120 2 8.7 2.2
2017-Nov-18 10:39 100 2 8.7 1.7
2017-Nov-18 10:25 080 2 8.7 1.7
2017-Nov-18 10:13 090 4 8.7 2.2
2017-Nov-18 09:53 350 4 6.1 3.3 Light rain.
2017-Nov-18 08:53 8.7 2.2
2017-Nov-18 07:53 8.7 2.8 Light rain.
2017-Nov-18 07:36 8.7 2.2
2017-Nov-18 06:53 8.7 2.2
2017-Nov-18 06:11 8.7 3.3 Light rain.
2017-Nov-18 05:53 040 2 8.7 3.3 Light rain.
2017-Nov-18 05:51 8.7 3.0 Light rain.
2017-Nov-18 04:53 070 6 6.1 3.3 Light rain snow.
2017-Nov-18 04:51 060 8 6.1 3.0 Light rain snow.
2017-Nov-18 03:53 110 12 4.3 2.8 Light rain snow. Mist.
2017-Nov-18 02:53 030 2 8.7 2.8
2017-Nov-18 01:53 100 8 8.7 3.9
2017-Nov-18 00:53 110 13 6.1 3.9
2017-Nov-18 00:23 110 18 7.8 3.3 Light snow.
2017-Nov-17 23:53 100 20 gusting 27 6.9 2.2 Light snow.
2017-Nov-17 23:26 100 20 gusting 27 3.5 2.8 Light snow. Mist.
2017-Nov-17 22:53 070 9 gusting 20 6.9 2.2 Light snow.
2017-Nov-17 21:59 110 20 gusting 26 2.6 2.2 Light snow. Mist.
2017-Nov-17 21:53 100 19 gusting 26 1.5 1.7 Light snow. Mist.
2017-Nov-17 21:46 100 19 1.7 2.2 Light snow. Mist.
2017-Nov-17 21:35 110 21 gusting 27 5.2 2.8 Light snow. Mist.
2017-Nov-17 20:53 110 22 gusting 29 7.8 2.8 Light snow.
2017-Nov-17 20:50 110 20 gusting 29 7.8 3.0 Light snow.
2017-Nov-17 20:23 120 15 gusting 22 2.6 1.7 Light snow. Mist.
2017-Nov-17 20:00 090 19 gusting 27 1.5 2.2 Light snow.
2017-Nov-17 19:53 110 22 gusting 27 5.2 2.8 Light snow.
2017-Nov-17 19:42 110 22 gusting 27 5.2 2.8 Light snow.
2017-Nov-17 18:53 110 18 gusting 27 7.8 3.9 Light snow.
2017-Nov-17 17:53 110 20 gusting 27 8.7 3.3
2017-Nov-17 16:53 110 20 gusting 28 8.7 3.3
2017-Nov-17 16:40 120 18 gusting 25 8.7 2.8
2017-Nov-17 15:53 110 15 gusting 26 5.2 2.8 Light snow.
2017-Nov-17 15:36 110 18 gusting 25 3.5 2.8 Light snow.
2017-Nov-17 14:53 110 17 gusting 26 5.2 2.8 Light snow.
2017-Nov-17 13:53 100 18 7.8 2.8 Light rain.
2017-Nov-17 12:53 110 15 gusting 25 8.7 2.8
2017-Nov-17 11:53 110 13 8.7 2.8
2017-Nov-17 11:05 110 13 8.7 2.8
2017-Nov-17 10:53 120 12 8.7 2.2
2017-Nov-17 09:53 110 15 3.5 1.7 Light snow. Mist.
2017-Nov-17 09:46 110 13 3.5 1.7 Light snow. Mist.
2017-Nov-17 09:29 110 13 gusting 20 1.7 1.1 Light snow. Mist.
2017-Nov-17 09:15 110 14 1.1 1.1 Light snow. Mist.
2017-Nov-17 08:59 110 15 gusting 19 1.5 1.1 Light snow. Mist.
2017-Nov-17 08:53 110 9 2.6 0.6 Light snow. Mist.
2017-Nov-17 08:12 120 11 2.6 0.6 Light snow.
2017-Nov-17 08:04 110 9 1.3-0.0 Light snow. Mist.
2017-Nov-17 07:53 120 12 2.2-0.0 Light snow.
2017-Nov-17 07:22 130 7 2.2 0.6 Light snow.
2017-Nov-17 06:53 110 6 8.7 2.2
2017-Nov-17 05:53 100 6 8.7 0.6